DW5450 Weather Reports


Display with metric or nautical units.
time (UTC)temp
F
wind
direction
speed
MPH
gust
MPH
rain 1hr
in
rain 24hr
in
rain mn
in
humidity
%
barometer
mb
20260503200026 87 150 4.0 13.0 0.00 0.00 0.00 43 1012.3
20260503194524 87 176 3.0 12.0 0.00 0.00 0.00 40 1012.2
20260503193036 86 167 3.0 9.0 0.00 0.00 0.00 41 1012.5
20260503191520 86 94 4.0 11.0 0.00 0.00 0.00 42 1012.8
20260503190017 85 177 3.0 11.0 0.00 0.00 0.00 47 1012.8
20260503184523 84 146 4.0 11.0 0.00 0.00 0.00 45 1013.1
20260503183016 84 157 5.0 12.0 0.00 0.00 0.00 50 1013.1
20260503181517 83 182 3.0 12.0 0.00 0.00 0.00 56 1013.1
20260503180019 84 182 2.0 11.0 0.00 0.00 0.00 61 1013.0
20260503174515 83 111 2.0 9.0 0.00 0.00 0.00 67 1013.1
20260503173022 83 169 3.0 11.0 0.00 0.00 0.00 69 1013.1
20260503171521 83 162 5.0 10.0 0.00 0.00 0.00 70 1013.1
20260503081602 65 22 0.0 2.0 0.00 0.00 0.00 66 1011.1
20260503080106 66 23 0.0 1.0 0.00 0.00 0.00 66 1011.3
20260503071604 65 36 0.0 2.0 0.00 0.00 0.00 67 1011.9
20260503070110 66 36 0.0 0.0 0.00 0.00 0.00 67 1012.0
20260503060112 68 36 0.0 0.0 0.00 0.00 0.00 62 1012.0
20260503054547 68 36 0.0 1.0 0.00 0.00 0.00 62 1011.9
20260503053049 69 36 0.0 2.0 0.00 0.00 0.00 61 1011.8
20260503051549 69 98 0.0 2.0 0.00 0.00 0.00 60 1011.5
20260503050046 69 141 0.0 1.0 0.00 0.00 0.00 60 1011.4
20260503044546 70 142 0.0 0.0 0.00 0.00 0.00 60 1011.5
20260503043046 71 142 1.0 2.0 0.00 0.00 0.00 60 1011.3
20260503041545 73 142 0.0 0.0 0.00 0.00 0.00 56 1011.0
20260503040048 73 142 0.0 1.0 0.00 0.00 0.00 56 1010.8
20260503034551 73 138 0.0 2.0 0.00 0.00 0.00 56 1010.7
20260503033049 73 138 0.0 1.0 0.00 0.00 0.00 55 1010.6
20260503031543 73 138 0.0 0.0 0.00 0.00 0.00 54 1010.3
20260503030042 74 138 0.0 0.0 0.00 0.00 0.00 53 1010.4
20260503024542 74 138 0.0 0.0 0.00 0.00 0.00 53 1010.3
20260503023043 75 138 0.0 1.0 0.00 0.00 0.00 51 1010.0
20260503021541 76 138 0.0 3.0 0.00 0.00 0.00 52 1009.9
20260503020040 77 134 0.0 3.0 0.00 0.00 0.00 49 1009.8
20260503014542 78 134 1.0 4.0 0.00 0.00 0.00 47 1009.5
20260503013049 79 107 1.0 3.0 0.00 0.00 0.00 45 1009.5
20260503011543 81 119 1.0 5.0 0.00 0.00 0.00 41 1009.3
20260503010054 81 163 2.0 7.0 0.00 0.00 0.00 37 1009.2
20260503004538 82 120 2.0 7.0 0.00 0.00 0.00 36 1009.3
20260503003037 82 132 2.0 8.0 0.00 0.00 0.00 36 1009.1
20260503001536 82 149 3.0 8.0 0.00 0.00 0.00 37 1009.1
20260503000035 83 153 3.0 8.0 0.00 0.00 0.00 41 1009.1
20260502234538 83 144 3.0 9.0 0.00 0.00 0.00 42 1009.1
20260502233031 83 196 4.0 10.0 0.00 0.00 0.00 44 1009.1
20260502231531 83 173 2.0 9.0 0.00 0.00 0.00 48 1009.0
20260502230031 83 148 4.0 9.0 0.00 0.00 0.00 51 1009.3
20260502224529 84 170 3.0 9.0 0.00 0.00 0.00 52 1009.3
20260502223028 84 132 5.0 10.0 0.00 0.00 0.00 54 1009.5
20260502221527 84 123 4.0 11.0 0.00 0.00 0.00 55 1009.5
20260502220027 84 118 3.0 11.0 0.00 0.00 0.00 56 1009.7
20260502214535 84 165 3.0 9.0 0.00 0.00 0.00 57 1009.8
20260502213028 84 138 5.0 11.0 0.00 0.00 0.00 58 1010.1
20260502211527 84 173 3.0 10.0 0.00 0.00 0.00 62 1010.2
20260502210029 84 159 4.0 9.0 0.00 0.00 0.00 62 1010.3
20260502204521 83 122 3.0 11.0 0.00 0.00 0.00 63 1010.5
20260502203020 83 109 5.0 13.0 0.00 0.00 0.00 63 1010.5
20260502201523 83 165 4.0 11.0 0.00 0.00 0.00 67 1010.6